Flag for Qatar Weather past 2 weeks in Al Khor, Qatar

Now
97 °F

Haze.


Feels Like: 115 °F
Forecast: 91 / 105 °F
Wind: 5 mph from Northeast

Location: Doha International Airport

Current Time: Jul 5, 2015 at 9:17:14 AM

Latest Report: Jul 5, 2015 at 8:00 AM


Visibility: 3 mi

Pressure: 29.56 "Hg

Humidity: 56%

Dew point: 79 °F

Location of Al KhorLocation

Historic Weather in Al Khor — Graph

°F

Al Khor temperature yesterday

Maximum temperature yesterday: 102 °F (at 11:00 AM)
Minimum temperature yesterday: 88 °F (at 2:00 AM)
Average temperature yesterday: 93 °F

Past Weeks' High & Low Weather Summary

 TemperatureHumidityPressure
High109 °F (Jun 20, 11:00 AM)84% (Jul 4, 4:00 AM)29.65 "Hg (Jul 4, 4:00 AM)
Low81 °F (Jun 26, 7:00 PM)7% (Jun 25, 3:00 PM)29.42 "Hg (Jun 20, 4:00 PM)
Average98 °F31%29.53 "Hg
* Reported Jun 20 8:00 AM — Jul 5 8:00 AM, Al Khor, Weather by CustomWeather, © 2015

Note: Actual official high and low records may vary slightly from our data, if they occured in-between our weather recording intervals... More about our weather records

Advertising

Al Khor weather history for previous 24 hours

 ConditionsComfort  
Time TempWeatherWind HumidityBarometerVisibility
8:00 AM
Sun, Jul 5
97 °FHaze.5 mph56%29.56 "Hg3 mi
7:00 AM95 °FClear.3 mph60%29.56 "Hg4 mi
6:00 AM93 °FClear.3 mph59%29.56 "Hg4 mi
5:00 AM90 °FClear.3 mph75%29.53 "Hg4 mi
4:00 AM90 °FPassing clouds.3 mph71%29.50 "HgN/A
3:00 AM90 °FPassing clouds.6 mph75%29.50 "HgN/A
2:00 AM91 °FPassing clouds.7 mph75%29.50 "HgN/A
1:00 AM91 °FPassing clouds.3 mph67%29.50 "HgN/A
11:00 PM
Sat, Jul 4
90 °FClear.3 mph79%29.56 "Hg4 mi
10:00 PM91 °FClear.3 mph75%29.56 "Hg4 mi
7:00 PM91 °FClear.6 mph80%29.53 "Hg4 mi
6:00 PM93 °FClear.6 mph71%29.53 "Hg4 mi
5:00 PM95 °FClear.8 mph71%29.50 "Hg4 mi
4:00 PM97 °FClear.9 mph60%29.50 "Hg4 mi
3:00 PM97 °FClear.10 mph63%29.53 "Hg5 mi
2:00 PM99 °FClear.10 mph60%29.53 "Hg6 mi
1:00 PM100 °FClear.9 mph57%29.53 "Hg6 mi
12:00 PM100 °FClear.9 mph60%29.53 "Hg5 mi
11:00 AM102 °FClear.6 mph54%29.56 "Hg5 mi
10:00 AM100 °FClear.5 mph57%29.56 "Hg6 mi
9:00 AM95 °FClear.2 mph63%29.56 "Hg5 mi
Weather by CustomWeather, © 2015

See weather overviewHow to use our weather pages